Time,TemperatureF,DewpointF,PressureIn,WindDirection,WindDirectionDegrees,WindSpeedMPH,WindSpeedGustMPH,Humidity,HourlyPrecipIn,Conditions,Clouds,dailyrainin,SoftwareType,DateUTC
2013-04-15 00:00:00,59.2,30.1,30.29,NE,41,1.0,7.0,33,0.00,CLR,FEW,0.00,WeatherDisplay:10.37,2013-04-14 22:00:00,
2013-04-15 00:30:00,55.8,31.2,30.28,NE,52,0.0,5.0,39,0.00,CLR,FEW,0.00,WeatherDisplay:10.37,2013-04-14 22:30:00,
2013-04-15 01:00:00,53.9,33.1,30.28,ENE,59,0.0,4.0,45,0.00,CLR,FEW,0.00,WeatherDisplay:10.37,2013-04-14 23:00:00,
2013-04-15 01:30:00,53.6,33.8,30.27,NE,56,1.0,7.0,47,0.00,CLR,FEW,0.00,WeatherDisplay:10.37,2013-04-14 23:30:00,
2013-04-15 02:00:00,53.5,34.3,30.26,ENE,57,1.0,5.0,48,0.00,CLR,FEW,0.00,WeatherDisplay:10.37,2013-04-15 00:00:00,
2013-04-15 02:30:00,52.9,34.2,30.26,East,80,0.0,6.0,49,0.00,CLR,FEW,0.00,WeatherDisplay:10.37,2013-04-15 00:30:00,
2013-04-15 03:00:00,52.9,34.2,30.26,East,80,0.0,2.0,49,0.00,CLR,FEW,0.00,WeatherDisplay:10.37,2013-04-15 01:00:00,
2013-04-15 03:30:00,53.6,34.9,30.25,ENE,62,2.0,9.0,49,0.00,CLR,FEW,0.00,WeatherDisplay:10.37,2013-04-15 01:30:00,
2013-04-15 04:00:00,52.9,34.8,30.25,ENE,58,0.0,6.0,50,0.00,CLR,FEW,0.00,WeatherDisplay:10.37,2013-04-15 02:00:00,
2013-04-15 04:30:00,53.2,34.0,30.24,East,82,0.0,7.0,48,0.00,CLR,FEW,0.00,WeatherDisplay:10.37,2013-04-15 02:30:00,
2013-04-15 05:00:00,51.9,34.3,30.24,East,82,0.0,2.0,51,0.00,CLR,FEW,0.00,WeatherDisplay:10.37,2013-04-15 03:00:00,
2013-04-15 05:30:00,52.5,31.8,30.24,East,82,0.0,2.0,45,0.00,CLR,FEW,0.00,WeatherDisplay:10.37,2013-04-15 03:30:00,
2013-04-15 06:00:00,55.5,24.5,30.23,ENE,57,3.0,8.0,30,0.00,CLR,FEW,0.00,WeatherDisplay:10.37,2013-04-15 04:00:00,
2013-04-15 06:30:00,57.4,24.5,30.24,ENE,65,3.0,12.0,28,0.00,CLR,FEW,0.00,WeatherDisplay:10.37,2013-04-15 04:30:00,
2013-04-15 07:00:00,56.7,26.3,30.23,SSE,147,1.0,7.0,31,0.00,CLR,FEW,0.00,WeatherDisplay:10.37,2013-04-15 05:00:00,
2013-04-15 07:30:00,57.0,28.9,30.24,ENE,73,1.0,6.0,34,0.00,CLR,FEW,0.00,WeatherDisplay:10.37,2013-04-15 05:30:00,
2013-04-15 08:00:00,58.9,34.6,30.24,ENE,62,0.0,6.0,40,0.00,CLR,FEW,0.00,WeatherDisplay:10.37,2013-04-15 06:00:00,
2013-04-15 08:30:00,60.4,35.3,30.24,ENE,62,0.0,0.0,39,0.00,CLR,FEW,0.00,WeatherDisplay:10.37,2013-04-15 06:30:00,
2013-04-15 09:00:00,62.4,30.5,30.23,ENE,63,1.0,4.0,30,0.00,CLR,FEW,0.00,WeatherDisplay:10.37,2013-04-15 07:00:00,
2013-04-15 10:00:00,62.0,36.1,30.22,South,176,6.0,12.0,38,0.00,CLR,FEW,0.00,WeatherDisplay:10.37,2013-04-15 08:00:00,
2013-04-15 11:00:00,66.1,35.4,30.22,SSE,148,5.0,14.0,32,0.00,CLR,FEW,0.00,WeatherDisplay:10.37,2013-04-15 09:00:00,
2013-04-15 11:30:00,67.6,37.5,30.21,SSE,166,2.0,12.0,33,0.00,CLR,FEW,0.00,WeatherDisplay:10.37,2013-04-15 09:30:00,
2013-04-15 12:00:00,67.6,41.8,30.21,SW,220,2.0,12.0,39,0.00,CLR,FEW,0.00,WeatherDisplay:10.37,2013-04-15 10:00:00,
2013-04-15 12:30:00,67.5,40.3,30.20,WNW,299,3.0,7.0,37,0.00,CLR,FEW,0.00,WeatherDisplay:10.37,2013-04-15 10:30:00,
2013-04-15 13:00:00,69.0,43.0,30.18,WNW,299,6.0,12.0,39,0.00,CLR,FEW,0.00,WeatherDisplay:10.37,2013-04-15 11:00:00,
2013-04-15 13:30:00,70.0,39.6,30.18,South,171,2.0,12.0,33,0.00,CLR,FEW,0.00,WeatherDisplay:10.37,2013-04-15 11:30:00,
2013-04-15 14:00:00,69.1,40.3,30.18,WNW,303,0.0,8.0,35,0.00,CLR,FEW,0.00,WeatherDisplay:10.37,2013-04-15 12:00:00,
2013-04-15 14:30:00,70.3,43.5,30.17,NNW,333,0.0,8.0,38,0.00,CLR,FEW,0.00,WeatherDisplay:10.37,2013-04-15 12:30:00,
2013-04-15 15:00:00,71.5,41.6,30.15,WSW,244,1.0,6.0,34,0.00,CLR,FEW,0.00,WeatherDisplay:10.37,2013-04-15 13:00:00,
2013-04-15 15:30:00,70.7,40.2,30.15,ESE,103,2.0,8.0,33,0.00,CLR,FEW,0.00,WeatherDisplay:10.37,2013-04-15 13:30:00,
2013-04-15 16:00:00,70.9,40.4,30.14,SW,222,2.0,7.0,33,0.00,CLR,FEW,0.00,WeatherDisplay:10.37,2013-04-15 14:00:00,
2013-04-15 16:30:00,71.2,42.1,30.13,SSE,159,1.0,9.0,35,0.00,CLR,FEW,0.00,WeatherDisplay:10.37,2013-04-15 14:30:00,
2013-04-15 17:00:00,69.7,46.2,30.13,South,187,1.0,7.0,43,0.00,CLR,FEW,0.00,WeatherDisplay:10.37,2013-04-15 15:00:00,
2013-04-15 17:30:00,68.3,46.1,30.14,South,189,0.0,6.0,45,0.00,CLR,FEW,0.00,WeatherDisplay:10.37,2013-04-15 15:30:00,
2013-04-15 18:00:00,67.1,45.6,30.13,SW,224,1.0,6.0,46,0.00,CLR,FEW,0.00,WeatherDisplay:10.37,2013-04-15 16:00:00,
2013-04-15 18:30:00,66.1,44.1,30.13,WNW,292,0.0,4.0,45,0.00,CLR,FEW,0.00,WeatherDisplay:10.37,2013-04-15 16:30:00,
2013-04-15 19:00:00,64.6,44.5,30.13,WNW,288,0.0,2.0,48,0.00,CLR,FEW,0.00,WeatherDisplay:10.37,2013-04-15 17:00:00,
2013-04-15 19:30:00,62.7,44.3,30.14,WNW,288,0.0,1.0,51,0.00,CLR,FEW,0.00,WeatherDisplay:10.37,2013-04-15 17:30:00,
2013-04-15 20:00:00,59.6,45.2,30.14,WNW,288,0.0,1.0,59,0.00,CLR,FEW,0.00,WeatherDisplay:10.37,2013-04-15 18:00:00,
2013-04-15 20:30:00,58.8,44.0,30.14,SE,127,1.0,7.0,58,0.00,CLR,FEW,0.00,WeatherDisplay:10.37,2013-04-15 18:30:00,
2013-04-15 21:00:00,60.1,41.9,30.15,East,98,3.0,9.0,51,0.00,CLR,FEW,0.00,WeatherDisplay:10.37,2013-04-15 19:00:00,
2013-04-15 21:30:00,59.8,41.1,30.16,SE,139,1.0,7.0,50,0.00,CLR,FEW,0.00,WeatherDisplay:10.37,2013-04-15 19:30:00,
2013-04-15 22:00:00,58.4,40.8,30.16,NE,53,1.0,7.0,52,0.00,CLR,FEW,0.00,WeatherDisplay:10.37,2013-04-15 20:00:00,
2013-04-15 22:30:00,58.2,40.6,30.16,East,85,1.0,8.0,52,0.00,CLR,FEW,0.00,WeatherDisplay:10.37,2013-04-15 20:30:00,
2013-04-15 23:00:00,58.3,40.7,30.16,ENE,70,2.0,7.0,52,0.00,CLR,FEW,0.00,WeatherDisplay:10.37,2013-04-15 21:00:00,
2013-04-15 23:30:00,57.8,40.3,30.16,ENE,73,1.0,6.0,52,0.00,CLR,FEW,0.00,WeatherDisplay:10.37,2013-04-15 21:30:00,